Regional Weather Roundup
Issued by NWS

Home | Current Version | Previous Version | Graphics & Text | Print | Product List | Glossary On
Versions: 1 2 3 4 5 6 7 8 9 10 11 12 13 14 15 16 17 18 19 20 21 22 23 24 25 26 27 28 29 30 31 32 33 34 35 36 37 38 39 40 41 42 43 44 45 46 47 48 49 50
000
ASUS43 KLOT 260600
RWRIL

ILLINOIS REGIONAL WEATHER ROUNDUP
NATIONAL WEATHER SERVICE CHICAGO/ROMEOVILLE IL
100 AM CDT SUN OCT 26 2014

NOTE: "FAIR" INDICATES FEW OR NO CLOUDS BELOW 12,000 FEET WITH NO
SIGNIFICANT WEATHER AND/OR OBSTRUCTIONS TO VISIBILITY.

* THESE STATIONS ARE NOT UNDER NWS QUALITY CONTROL. THEY ALSO MAY NOT
  REPORT WEATHER SUCH AS PRECIPITATION OR FOG.

ILZ001-002-007-009-015-016-024-260700-
NORTHWEST ILLINOIS

CITY           SKY/WX    TMP DP  RH WIND       PRES   REMARKS
MOLINE         CLEAR     44  37  76 W5        30.04S
6HR MIN TEMP:  43; 6HR MAX TEMP:  62;

STERLING*      CLEAR     46  30  53 W6        30.03R
$$

ILZ003-004-008-010-011-017-018-260700-
NORTH CENTRAL ILLINOIS

CITY           SKY/WX    TMP DP  RH WIND       PRES   REMARKS
ROCKFORD       CLEAR     48  29  47 NW7       30.03S
6HR MIN TEMP:  45; 6HR MAX TEMP:  60;

$$

ILZ005-006-012>014-019>023-260700-
NORTHEAST ILLINOIS

CITY           SKY/WX    TMP DP  RH WIND       PRES   REMARKS
CHICAGO-OHARE  CLEAR     49  30  48 W8        29.97S
6HR MIN TEMP:  49; 6HR MAX TEMP:  63;

CHICAGO-MIDWAY CLEAR     53  30  41 W6        29.98S
6HR MIN TEMP:  52; 6HR MAX TEMP:  66;

AURORA         CLEAR     37  31  78 W7        30.01R WCI  32
6HR MIN TEMP:  36; 6HR MAX TEMP:  55;

WAUKEGAN       CLEAR     50  28  42 W6        29.96S
6HR MIN TEMP:  50; 6HR MAX TEMP:  59;

DUPAGE AIRPORT CLEAR     48  29  47 NW7       29.99S
6HR MIN TEMP:  48; 6HR MAX TEMP:  61;

WHEELING       CLEAR     54  27  35 NW9       29.99S
6HR MIN TEMP:  54; 6HR MAX TEMP:  64;

NORTHERLY ISL    N/A     57  27  31 W7          N/A
$$

LMZ740>746-260700-
SOUTHERN LAKE MICHIGAN

STATION/POSITION SKY/WX   TEMP    WIND        PRES    VSBY  WAVE
                          AIR SEA DIR/SP/G                  HT/PER
                          (F)     (DEG/KT/KT) (MB)    (MI)  (FT/S)
SOUTHERN BUOY              56 54  300/ 17/ 21 1013.2F         3/ 5
WAUKEGAN HARBOR            54     300/ 10/ 17   N/A
HARRISON CRIB              58     310/ 17/ 23   N/A
BURNHAM HARBOR             57     280/  7/ 16   N/A
CALUMET HARBOR             56     280/  4/  8 1013.8S
MICHIGAN CITY              58     300/ 16/ 19   N/A
$$

ILZ025>027-034>036-040-047-049-050-058-095>099-260700-
WEST-CENTRAL ILLINOIS

CITY           SKY/WX    TMP DP  RH WIND       PRES   REMARKS
QUINCY         CLEAR     51  39  63 NE8       30.04F
$$

ILZ028>032-037-038-041>044-048-051>054-059>061-260700-
CENTRAL ILLINOIS

CITY           SKY/WX    TMP DP  RH WIND       PRES   REMARKS
DECATUR        CLEAR     58  38  47 N10       30.03S
PEORIA         CLEAR     54  35  48 CALM      30.03S
6HR MIN TEMP:  54; 6HR MAX TEMP:  67;

SPRINGFIELD    CLEAR     56  38  50 N6        30.04S
6HR MIN TEMP:  50; 6HR MAX TEMP:  67;

TAYLORVILLE    NOT AVBL
$$

ILZ033-039-045-046-055>057-062-063-260700-
EAST-CENTRAL ILLINOIS

CITY           SKY/WX    TMP DP  RH WIND       PRES   REMARKS
CHAMPAIGN      CLEAR     47  40  76 NW7       30.02R
MATTOON        CLEAR     50  41  71 NW6       30.01S
$$

ILZ079-100>102-260700-
SOUTHWEST ILLINOIS

CITY           SKY/WX    TMP DP  RH WIND       PRES   REMARKS
BELLEVILLE     CLEAR     54  54  99 CALM      30.01R
CAHOKIA*       CLEAR     53  52  96 CALM      30.02R
$$

ILZ064>066-069>071-074>076-080>082-084>086-088>090-092>094-260700-
SOUTH-CENTRAL ILLINOIS

CITY           SKY/WX    TMP DP  RH WIND       PRES   REMARKS
CARBONDALE     CLEAR     51  50  96 CALM      30.00F FOG
6HR MIN TEMP:  51; 6HR MAX TEMP:  65;

MT. VERNON     CLEAR     48  43  81 CALM      30.01S
$$

ILZ067-068-072-073-078-083-087-091-260700-
SOUTHEAST ILLINOIS

CITY           SKY/WX    TMP DP  RH WIND       PRES   REMARKS
LAWRENCEVILLE  CLEAR     57  51  80 NW3       30.00R HAZE
$$

ABBREVIATIONS USED IN REMARKS
   TC - TEMPERATURE IN CELSIUS
  WCI - WIND CHILL INDEX
   HX - HEAT INDEX
  VSB - VISIBILITY
$$




USA.gov is the U.S. government's official web portal to all federal, state and local government web resources and services.